Regional Weather Roundup
Issued by NWS Charleston, SC

Current Version | Previous Version | Text Only | Print | Product List | Glossary Off
Versions: 1 2 3 4 5 6 7 8 9 10 11 12 13 14 15 16 17 18 19 20 21 22 23 24 25 26 27 28 29 30 31 32 33 34 35 36 37 38 39 40 41 42 43 44 45 46 47 48 49 50
000 ASUS42 KCHS 292012 RWRCHS REGIONAL WEATHER ROUNDUP NATIONAL WEATHER SERVICE CHARLESTON SC 400 PM EDT FRI MAY 29 2015 NOTE: "FAIR" INDICATES FEW OR NO CLOUDS BELOW 12,000 FEET WITH NO SIGNIFICANT WEATHER AND/OR OBSTRUCTIONS TO VISIBILITY. NOT ALL STATIONS ARE QUALITY CONTROLLED BY THE NATIONAL WEATHER SERVICE. USE DATA WITH CAUTION...ESPECIALLY DEWPOINT OBSERVATIONS. SCZ027-030-031-034>040-042>050-292100- ...SOUTHEAST SOUTH CAROLINA... CITY SKY/WX TMP DP RH WIND PRES REMARKS N CHARLESTON PTSUNNY 78 66 66 NE17 30.20F WATERFRONT PAR N/A 78 69 73 NE13 30.18F MOUNT PLEASANT HVY RAIN 73 70 88 CALM 30.21F JOHNS ISLAND PTCLDY 82 70 65 NE12 30.19F PINOPOLIS N/A 82 68 61 VRB3 30.13F MONCKS CORNER CLOUDY 77 64 65 S5 30.20F SUMMERVILLE CLOUDY 81 68 65 E6 30.21S BEAUFORT MCAS MOSUNNY 84 67 56 E14 30.17F BEAUFORT ARPT FAIR 82 70 65 E10G16 30.17F HILTON HEAD IS MOSUNNY 81 72 74 NE12 30.19F WALTERBORO PTCLDY 84 64 51 E9 30.18F ALLENDALE FAIR 86 63 45 CALM 30.16F ...SOUTHERN MIDLANDS AND PEE DEE... CITY SKY/WX TMP DP RH WIND PRES REMARKS GEORGETOWN NOT AVBL KINGSTREE NOT AVBL ORANGEBURG MOSUNNY 86 61 42 VRB6 30.18F BARNWELL FAIR 88 61 40 E10 30.17F AIKEN FAIR 86 50 28 SE9 30.22F MANNING FAIR 81 3 5 SE7 30.19F COLUMBIA MOSUNNY 88 49 25 SE9 30.17F SUMTER SUNNY 88 58 35 VRB5 30.16F FLORENCE SUNNY 88 54 31 MISG 30.18F MYRTLE BEACH MOSUNNY 82 66 57 E8 30.23F N MYRTLE BEACH SUNNY 80 68 66 SE12 30.21F $$ GAZ063-065-086>088-099>101-113>116-118-119-134>141-150-292100- ...SOUTHEAST GEORGIA... CITY SKY/WX TMP DP RH WIND PRES REMARKS SAVANNAH ARPT PTSUNNY 85 66 53 E16G22 30.16F HUNTER AAF SUNNY 85 69 60 E14G20 30.15F FORT STEWART MOSUNNY 88 64 45 E15G21 30.14F STATESBORO PTSUNNY 85 66 53 SE5 30.15F SYLVANIA PTCLDY 88 63 43 SE7 30.17F CLAXTON FAIR 86 63 45 E7 30.15F ...CSRA...CENTRAL AND FAR SOUTHEAST GEORGIA... CITY SKY/WX TMP DP RH WIND PRES REMARKS THOMSON SUNNY 89 57 34 SE8 30.21F AUGUSTA-BUSH SUNNY 86 58 38 SE6 30.16F AUGUSTA-DANIEL SUNNY 87 57 35 SE6 30.18F SWAINSBORO MOCLDY 88 59 37 SE9 30.17F VIDALIA MOSUNNY 86 59 39 SE6 30.15F EASTMAN FAIR 89 60 38 E5 30.17F HAZLEHURST MOCLDY 86 59 39 E7 30.14F ALMA MOSUNNY 87 60 40 VRB5 30.13F WAYCROSS SUNNY 87 64 45 SE12G17 30.13F JESUP FAIR 86 68 54 SE10 30.14F BAXLEY PTSUNNY 88 63 42 SE6 30.13F BRUNSWICK N/A 82 64 54 NE15 30.17F SAINT SIMONS NOT AVBL $$ SCZ027-028-034-036>038-045-046-048>050-GAZ119-141-292100- ...LAKE AND SUPPLEMENTAL COASTAL OBSERVATIONS... STATION/POSITION TIME TEMP WIND PRES WAVE SWELL AIR SEA DIR/SP/G HT/PER HT/PER/DIR (UTC) (F) (DEG/KT/KT) (MB) (FT/S) (FT/S/D) UPR LAKE MARION NOT AVBL WINYAH BAY NOT AVBL LAKE MURRAY 1900 85 180/ 2/ 6 1021.7F ACE BASIN NERRS NOT AVBL FORT PULASKI 1900 77 80 70/ 14/ 16 1022.9F SAPELO ISLAND 1900 83 60/ 13 1022.0S $$ ANZ835-935-AMZ111-154-330-350-352-354-370-450-454-472-292100- ...C-MAN AND BUOY OBSERVATIONS... STATION/POSITION TIME TEMP WIND PRES WAVE SWELL AIR SEA DIR/SP/G HT/PER HT/PER/DIR (UTC) (F) (DEG/KT/KT) (MB) (FT/S) (FT/S/D) BUOY 41004 1950 78 79 80/ 10/ 12 1021.9F 4/ 7 3/ 7 BUOY 41008 1950 75 78 40/ 16/ 17 1021.6F 4/ 9 3/110/ 9 FOLLY BEACH CMAN 2000 75 40/ 12/ 14 1022.6F CAPERS NEARSHORE 1908 73 20/ 8/ 12 1023.1F FRIPP NEARSHORE 1900 78 70/ 12/ 16 1021.9F STATION/POSITION TIME TEMP WIND PRES WAVE SWELL AIR SEA DIR/SP/G HT/PER HT/PER/DIR (UTC) (F) (DEG/KT/KT) (MB) (FT/S) (FT/S/D) 5E ST. MARYS GA 1921 80 N/A 4/10 2/100/11 FRYING PAN BUOY 1950 76 76 40/ 10/ 12 1023.4F 3/ 8 3/110/ 8 BUOY 41025 1950 77 81 130/ 6/ 10 1023.8F 4/ 8 3/110/ 8 CAPE LOOKOUT NC 2000 76 110/ 7/ 7 1023.3F BUOY 41002 1950 75 75 90/ 16/ 17 1021.8F 6/ 9 3/ 80/ 9 BUOY 41010 1920 78 81 40/ 14/ 16 1019.6F ST AUGUSTINE FL 2000 76 81 40/ 12/ 13 1021.4F $$

USA.gov is the U.S. government's official web portal to all federal, state and local government web resources and services.